Weather in Kraljevo

Serbia     43°43′36″N   20°41′10″E
temp.,
°C
wind,
m/s
gust,
m/s
humid.,
%
clouds,
%
prec.,
mm/h
press.,
hPa
HPBL,
m
27 october, wed
wed2723:00+4sse11800 0.0 102610
02:00+3sw00861 0.0 102710
05:00+3sw119144 0.0 102710
08:00+3wsw1187100 0.0 102823
11:00+10nw116591 0.0 1028512
14:00+13n115495 0.0 1027972
17:00+10n11646 0.0 102610
20:00+6e11805 0.0 102810
28 october, thu
thu2823:00+5sse11880 0.0 102910
02:00+4sw00915 0.0 102810
05:00+3ssw00925 0.0 102810
08:00+4sse11880 0.0 102822
11:00+11ese23565 0.0 1027563
14:00+14ese23475 0.0 1024685
17:00+11e115950 0.0 102410
20:00+7se22765 0.0 102516
29 october, fri
fri2923:00+5se22825 0.0 102520
02:00+5se22845 0.0 102430
05:00+4se22865 0.0 102432
08:00+5se23835 0.0 102462
11:00+12ese35530 0.0 1022522
14:00+16e47400 0.0 1020814
17:00+12e34570 0.0 102093
20:00+8ese22720 0.0 102141
30 october, sat
sat3023:00+7ese22760 0.0 102230
02:00+6se22810 0.0 102230
05:00+5se22830 0.0 102328
08:00+6se23800 0.0 102358
11:00+12ese35510 0.0 1023509
14:00+15e46450 0.0 1021747
17:00+12e22621 0.0 102131
20:00+8ese22810 0.0 102336
31 october, sun
sun3123:00+7ese22840 0.0 102333
02:00+6ese22870 0.0 102335
04:00+5se22890 0.0 102232
07:00+5se23860 0.0 102278
10:00+13ese35570 0.0 1020517
13:00+16ese46475 0.0 1017709
16:00+12e22626 0.0 101730
19:00+9ese227613 0.0 101827